Location: Leuk
(46.3174°N, 7.6341°E)
Time: 14:12:41
(UTC+00:00)

ATLAS 2AS CENTAUR R/B - Pass Details

Date: 09 March 2021
Orbit: 949 x 1263 km, 63.7° (Epoch: 13 April)

Event Time Altitude Azimuth Distance (km) Brightness Sun altitude
Exits shadow 04:26:15 - 207° (SSW) 4,128 5.4 -15.9°
Reaches altitude 10° 04:28:52 10° 206° (SSW) 3,230 4.9 -15.4°
Maximum altitude 04:36:43 72° 123° (ESE) 1,317 3.3 -14.1°
Drops below altitude 10° 04:44:29 10° 41° (NE) 3,205 5.9 -12.8°
Sets 04:47:14 0° 40° (NE) 4,146 6.5 -12.3°
